Weather History for KDYT - June, 2013

Change the Weather History Date:

Wednesday, June 26, 2013

  Actual Average Record
Temperature  
Mean Temperature 58 °F -  
Max Temperature 66 °F 70 °F 90 °F (1963)
Min Temperature 51 °F 51 °F 38 °F (1962)
Degree Days  
Heating Degree Days 6    
Growing Degree Days 8 (Base 50)    
Moisture  
Dew Point 55 °F    
Average Humidity 92    
Maximum Humidity 100    
Minimum Humidity 88    
Precipitation  
Precipitation 0.00 in - - ()
Sea Level Pressure  
Sea Level Pressure 29.73 in    
Wind  
Wind Speed 7 mph (NE)    
Max Wind Speed 20 mph    
Max Gust Speed -    
Visibility 8 miles    
Events Fog , Rain , Thunderstorm    
Averages and records for this station are not official NWS values.
T = Trace of Precipitation, MM = Missing Value Source: NWS Daily Summary

Daily Weather History Graph

Daily Weather History Graph

Search for Another Location

Airport or City:

Trip Planner

Search our weather history database for the weather conditions in past years. The results will help you decide how hot, cold, wet, or windy it might be!

Date:

Astronomy

Jun. 26, 2013 Rise Set
Actual Time 5:15 AM CDT 9:06 PM CDT
Civil Twilight 4:36 AM CDT 9:45 PM CDT
Nautical Twilight 3:42 AM CDT 10:39 PM CDT
Astronomical Twilight 2:24 AM CDT 11:57 PM CDT
Moon 11:11 PM CDT (6/26) 9:23 AM CDT (6/26)
Length of Visible Light 17h 09m
Length of Day
15h 50m
Waning Gibbous, 85% of the Moon is Illuminated
Jun 26
Waning Gibbous
Jun 29
Last Quarter
Jul 8
New
Jul 15
First Quarter
Jul 22
Full

Hourly Weather History & Observations

Time (CDT) Temp. Dew Point Humidity Pressure Visibility Wind Dir Wind Speed Gust Speed Precip Events Conditions
12:13 AM 60.8 °F 57.2 °F 88% 29.75 in 10.0 mi East 6.9 mph - N/A   Clear
12:34 AM 60.8 °F 57.2 °F 88% 29.75 in 10.0 mi East 5.8 mph - N/A   Clear
12:53 AM 59.0 °F 55.4 °F 88% 29.74 in 10.0 mi ENE 5.8 mph - N/A   Clear
1:14 AM 59.0 °F 55.4 °F 88% 29.73 in 10.0 mi East 4.6 mph - N/A   Clear
1:33 AM 59.0 °F 55.4 °F 88% 29.73 in 10.0 mi NNE 3.5 mph - N/A   Clear
1:54 AM 59.0 °F 57.2 °F 94% 29.73 in 10.0 mi NNE 5.8 mph - N/A   Clear
2:13 AM 57.2 °F 55.4 °F 94% 29.72 in 10.0 mi NNE 8.1 mph - N/A   Clear
2:33 AM 57.2 °F 55.4 °F 94% 29.72 in 10.0 mi NNE 9.2 mph - N/A   Clear
2:53 AM 57.2 °F 55.4 °F 94% 29.72 in 10.0 mi North 9.2 mph - N/A   Clear
3:14 AM 55.4 °F 53.6 °F 94% 29.71 in 7.0 mi North 8.1 mph - N/A   Scattered Clouds
3:33 AM 55.4 °F 53.6 °F 94% 29.72 in 10.0 mi NNE 6.9 mph - N/A   Mostly Cloudy
3:54 AM 57.2 °F 55.4 °F 94% 29.74 in 10.0 mi NNE 9.2 mph - N/A   Overcast
4:14 AM 57.2 °F 55.4 °F 94% 29.73 in 10.0 mi ENE 8.1 mph - N/A   Overcast
4:33 AM 59.0 °F 57.2 °F 94% 29.72 in 7.0 mi East 9.2 mph - N/A   Scattered Clouds
4:54 AM 57.2 °F 55.4 °F 94% 29.72 in 10.0 mi East 6.9 mph - N/A   Mostly Cloudy
5:14 AM 57.2 °F 55.4 °F 94% 29.71 in 10.0 mi East 5.8 mph - N/A   Mostly Cloudy
5:33 AM 57.2 °F 55.4 °F 94% 29.72 in 10.0 mi ENE 6.9 mph - N/A   Mostly Cloudy
5:53 AM 57.2 °F 55.4 °F 94% 29.73 in 10.0 mi NE 6.9 mph - N/A   Overcast
6:14 AM 55.4 °F 53.6 °F 94% 29.73 in 10.0 mi NNE 6.9 mph - N/A   Mostly Cloudy
6:33 AM 55.4 °F 53.6 °F 94% 29.72 in 10.0 mi NNE 4.6 mph - N/A   Scattered Clouds
6:54 AM 57.2 °F 53.6 °F 88% 29.71 in 10.0 mi ENE 6.9 mph - N/A   Mostly Cloudy
7:14 AM 55.4 °F 51.8 °F 88% 29.71 in 10.0 mi NE 9.2 mph - N/A   Overcast
7:33 AM 55.4 °F 51.8 °F 88% 29.72 in 10.0 mi ENE 9.2 mph - N/A   Overcast
7:54 AM 55.4 °F 51.8 °F 88% 29.71 in 10.0 mi NE 8.1 mph - N/A   Overcast
8:13 AM 53.6 °F 51.8 °F 94% 29.71 in 10.0 mi NE 8.1 mph - N/A   Overcast
8:33 AM 53.6 °F 51.8 °F 94% 29.71 in 10.0 mi NNE 9.2 mph - N/A   Overcast
8:54 AM 53.6 °F 50.0 °F 88% 29.71 in 10.0 mi North 9.2 mph - N/A   Overcast
9:13 AM 51.8 °F 50.0 °F 94% 29.72 in 10.0 mi NNE 10.4 mph - N/A   Overcast
9:33 AM 51.8 °F 50.0 °F 94% 29.72 in 10.0 mi ENE 9.2 mph - N/A   Overcast
9:54 AM 53.6 °F 51.8 °F 94% 29.71 in 10.0 mi East 12.7 mph - N/A   Overcast
10:13 AM 53.6 °F 51.8 °F 94% 29.72 in 5.0 mi East 10.4 mph - N/A   Overcast
10:34 AM 53.6 °F 51.8 °F 94% 29.73 in 7.0 mi NE 6.9 mph - N/A   Overcast
10:53 AM 53.6 °F 51.8 °F 94% 29.74 in 4.0 mi North 6.9 mph - N/A   Overcast
11:14 AM 53.6 °F 51.8 °F 94% 29.74 in 2.0 mi NNE 6.9 mph - N/A   Overcast
11:33 AM 53.6 °F 51.8 °F 94% 29.75 in 1.2 mi North 4.6 mph - N/A   Overcast
11:53 AM 53.6 °F 51.8 °F 94% 29.73 in 1.0 mi NNE 5.8 mph - N/A   Overcast
12:13 PM 51.8 °F 50.0 °F 94% 29.72 in 1.5 mi NE 8.1 mph - N/A   Overcast
12:33 PM 51.8 °F 50.0 °F 94% 29.72 in 1.0 mi NE 4.6 mph - N/A Thunderstorm Overcast
12:54 PM 51.8 °F 50.0 °F 94% 29.75 in 0.8 mi South 3.5 mph - N/A Rain , Thunderstorm Thunderstorms and Rain
1:13 PM 53.6 °F 51.8 °F 94% 29.73 in 10.0 mi NNW 9.2 mph - N/A Rain , Thunderstorm Light Thunderstorms and Rain
1:33 PM 53.6 °F 51.8 °F 94% 29.73 in 10.0 mi Calm Calm - N/A Thunderstorm Thunderstorm
1:54 PM 55.4 °F 53.6 °F 94% 29.72 in 10.0 mi NNE 3.5 mph - N/A   Overcast
2:13 PM 55.4 °F 53.6 °F 94% 29.74 in 10.0 mi ENE 5.8 mph - N/A   Overcast
2:34 PM 57.2 °F 53.6 °F 88% 29.74 in 10.0 mi NE 8.1 mph - N/A   Overcast
2:53 PM 55.4 °F 53.6 °F 94% 29.75 in 10.0 mi NNE 9.2 mph - N/A   Overcast
3:14 PM 55.4 °F 51.8 °F 88% 29.75 in 10.0 mi NNE 12.7 mph - N/A   Overcast
3:33 PM 53.6 °F 51.8 °F 94% 29.74 in 10.0 mi North 12.7 mph - N/A   Overcast
3:53 PM 53.6 °F 51.8 °F 94% 29.76 in 10.0 mi North 19.6 mph - N/A Thunderstorm Thunderstorm
4:13 PM 55.4 °F 51.8 °F 88% 29.77 in 10.0 mi North 12.7 mph - N/A Thunderstorm Overcast
4:34 PM 57.2 °F 55.4 °F 94% 29.75 in 1.0 mi East 6.9 mph - N/A Rain , Thunderstorm Heavy Thunderstorms and Rain
4:53 PM 59.0 °F 57.2 °F 94% 29.73 in 7.0 mi ESE 6.9 mph - N/A Rain Light Rain
5:13 PM 60.8 °F 57.2 °F 88% 29.73 in 10.0 mi Calm Calm - N/A   Scattered Clouds
5:34 PM 62.6 °F 60.8 °F 94% 29.73 in 10.0 mi Calm Calm - N/A   Scattered Clouds
5:53 PM 62.6 °F 60.8 °F 94% 29.73 in 10.0 mi NE 3.5 mph - N/A   Clear
6:13 PM 62.6 °F 60.8 °F 94% 29.73 in 10.0 mi Calm Calm - N/A   Clear
6:34 PM 62.6 °F 60.8 °F 94% 29.72 in 10.0 mi NNE 3.5 mph - N/A   Clear
6:53 PM 62.6 °F 60.8 °F 94% 29.72 in 7.0 mi NE 3.5 mph - N/A   Clear
7:13 PM 64.4 °F 60.8 °F 88% 29.72 in 10.0 mi Calm Calm - N/A   Scattered Clouds
7:33 PM 66.2 °F 62.6 °F 88% 29.72 in 10.0 mi Calm Calm - N/A   Clear
7:53 PM 64.4 °F 60.8 °F 88% 29.72 in 10.0 mi Calm Calm - N/A   Clear
8:14 PM 64.4 °F 62.6 °F 94% 29.73 in 10.0 mi Calm Calm - N/A   Clear
8:33 PM 66.2 °F 62.6 °F 88% 29.73 in 10.0 mi Calm Calm - N/A   Clear
8:53 PM 66.2 °F 62.6 °F 88% 29.73 in 10.0 mi Calm Calm - N/A   Clear
9:14 PM 66.2 °F 62.6 °F 88% 29.74 in 10.0 mi Calm Calm - N/A   Clear
9:33 PM 66.2 °F 62.6 °F 88% 29.74 in 10.0 mi Calm Calm - N/A   Clear
9:54 PM 62.6 °F 60.8 °F 94% 29.76 in 10.0 mi ENE 3.5 mph - N/A   Clear
10:13 PM 60.8 °F 57.2 °F 88% 29.77 in 10.0 mi ENE 4.6 mph - N/A   Clear
10:33 PM 55.4 °F 53.6 °F 94% 29.78 in 0.8 mi ENE 9.2 mph - N/A   Overcast
10:54 PM 55.4 °F 53.6 °F 94% 29.78 in 0.8 mi ENE 5.8 mph - N/A   Overcast
11:13 PM 55.4 °F 53.6 °F 94% 29.78 in 0.5 mi NNE 4.6 mph - N/A Fog Fog
11:34 PM 53.6 °F 51.8 °F 94% 29.79 in 0.5 mi NE 9.2 mph - N/A Fog Fog
11:53 PM 53.6 °F 53.6 °F 100% 29.78 in 1.0 mi ENE 6.9 mph - N/A   Overcast